Weather History for Perryton, TX

Change the Weather History Date:

Monday, February 13, 2012

  Actual Average Record
Temperature  
Mean Temperature 40 °F -  
Max Temperature 53 °F 53 °F 78 °F (1976)
Min Temperature 26 °F 21 °F -12 °F (1986)
Degree Days  
Heating Degree Days 26    
Moisture  
Dew Point 29 °F    
Average Humidity 75    
Maximum Humidity 93    
Minimum Humidity 47    
Precipitation  
Precipitation 0.01 in - - ()
Sea Level Pressure  
Sea Level Pressure 29.73 in    
Wind  
Wind Speed 21 mph (West)    
Max Wind Speed 36 mph    
Max Gust Speed 39 mph    
Visibility 9 miles    
Events      
Averages and records for this station are not official NWS values.
T = Trace of Precipitation, MM = Missing Value Source: NWS Daily Summary

Daily Weather History Graph

Daily Weather History Graph

Search for Another Location

Airport:

Trip Planner

Search our weather history database for the weather conditions in past years. The results will help you decide how hot, cold, wet, or windy it might be!

Date:

Astronomy

Feb. 13, 2012 Rise Set
Actual Time 7:33 AM CST 6:21 PM CST
Civil Twilight 7:07 AM CST 6:47 PM CST
Nautical Twilight 6:36 AM CST 7:18 PM CST
Astronomical Twilight 6:06 AM CST 7:48 PM CST
Moon 12:07 AM CST (2/13) 10:47 AM CST (2/13)
Length of Visible Light 11h 40m
Length of Day
10h 47m
Waning Gibbous, 61% of the Moon is Illuminated
Feb 13
Waning Gibbous
Feb 14
Last Quarter
Feb 21
New
Feb 29
First Quarter
Mar 8
Full

Hourly Weather History & Observations

Time (CST) Temp. Windchill Dew Point Humidity Pressure Visibility Wind Dir Wind Speed Gust Speed Precip Events Conditions
12:15 AM 26.6 °F 11.1 °F 23.0 °F 86% 29.85 in 10.0 mi South 26.5 mph 34.5 mph N/A   Overcast
12:35 AM 26.6 °F 10.3 °F 23.0 °F 86% 29.84 in 7.0 mi South 29.9 mph 39.1 mph N/A   Overcast
12:55 AM 26.6 °F 9.1 °F 23.0 °F 86% 29.81 in 3.0 mi South 35.7 mph 39.1 mph N/A   Overcast
1:15 AM 26.6 °F 9.6 °F 23.0 °F 86% 29.80 in 5.0 mi South 33.4 mph 39.1 mph N/A   Overcast
1:35 AM 26.6 °F 10.8 °F 23.0 °F 86% 29.80 in 10.0 mi South 27.6 mph 39.1 mph N/A   Overcast
1:55 AM 26.6 °F 10.8 °F 23.0 °F 86% 29.80 in 10.0 mi South 27.6 mph 34.5 mph N/A   Overcast
2:15 AM 26.6 °F 11.4 °F 24.8 °F 93% 29.79 in 7.0 mi South 25.3 mph 35.7 mph N/A   Overcast
2:35 AM 26.6 °F 10.6 °F 24.8 °F 93% 29.78 in 5.0 mi South 28.8 mph 35.7 mph N/A   Overcast
2:55 AM 28.4 °F 13.0 °F 24.8 °F 86% 29.76 in 7.0 mi South 28.8 mph 36.8 mph N/A   Overcast
3:15 AM 28.4 °F 14.4 °F 24.8 °F 86% 29.76 in 7.0 mi SSW 23.0 mph 33.4 mph N/A   Overcast
3:35 AM 28.4 °F 13.3 °F 26.6 °F 93% 29.74 in 7.0 mi SSW 27.6 mph - N/A   Overcast
3:55 AM 28.4 °F 13.5 °F 26.6 °F 93% 29.72 in 7.0 mi SSW 26.5 mph 35.7 mph N/A   Overcast
4:15 AM 28.4 °F 12.7 °F 26.6 °F 93% 29.71 in 10.0 mi SSW 29.9 mph 35.7 mph N/A   Overcast
4:35 AM 28.4 °F 12.7 °F 26.6 °F 93% 29.69 in 10.0 mi SSW 29.9 mph 36.8 mph N/A   Overcast
4:55 AM 30.2 °F 15.7 °F 26.6 °F 86% 29.69 in 10.0 mi SSW 27.6 mph 33.4 mph N/A   Mostly Cloudy
5:15 AM 28.4 °F 14.1 °F 26.6 °F 93% 29.68 in 10.0 mi South 24.2 mph 31.1 mph N/A   Scattered Clouds
5:35 AM 28.4 °F 14.7 °F 26.6 °F 93% 29.69 in 10.0 mi SSW 21.9 mph 27.6 mph N/A   Scattered Clouds
5:55 AM 28.4 °F 14.1 °F 26.6 °F 93% 29.69 in 10.0 mi SSW 24.2 mph - N/A   Scattered Clouds
6:15 AM 28.4 °F 14.7 °F 26.6 °F 93% 29.69 in 10.0 mi SSW 21.9 mph - N/A   Clear
6:35 AM 28.4 °F 14.7 °F 26.6 °F 93% 29.68 in 10.0 mi SSW 21.9 mph - N/A   Clear
6:55 AM 28.4 °F 16.2 °F 26.6 °F 93% 29.69 in 10.0 mi SSW 17.3 mph - N/A   Clear
7:15 AM 28.4 °F 16.2 °F 26.6 °F 93% 29.69 in 10.0 mi SSW 17.3 mph - N/A   Clear
7:35 AM 28.4 °F 18.0 °F 24.8 °F 86% 29.69 in 10.0 mi SSW 12.7 mph - N/A   Clear
7:55 AM 28.4 °F 18.0 °F 26.6 °F 93% 29.69 in 7.0 mi SW 12.7 mph - N/A   Clear
8:15 AM 30.2 °F 20.2 °F 26.6 °F 86% 29.70 in 10.0 mi SW 12.7 mph - N/A   Clear
8:35 AM 30.2 °F 19.8 °F 26.6 °F 86% 29.70 in 7.0 mi SW 13.8 mph 17.3 mph N/A   Clear
8:55 AM 30.2 °F 18.9 °F 26.6 °F 86% 29.71 in 10.0 mi WSW 16.1 mph - N/A   Clear
9:15 AM 32.0 °F 22.5 °F 28.4 °F 87% 29.71 in 10.0 mi WSW 12.7 mph - N/A   Clear
9:35 AM 32.0 °F 22.1 °F 28.4 °F 87% 29.71 in 10.0 mi West 13.8 mph - N/A   Clear
9:55 AM 32.0 °F 22.1 °F 28.4 °F 87% 29.71 in 10.0 mi WNW 13.8 mph 19.6 mph N/A   Clear
10:15 AM 33.8 °F 23.9 °F 26.6 °F 75% 29.72 in 10.0 mi WNW 15.0 mph - 0.01 in   Clear
10:35 AM 33.8 °F 23.9 °F 26.6 °F 75% 29.72 in 10.0 mi NW 15.0 mph - 0.01 in   Clear
10:55 AM 35.6 °F 25.9 °F 28.4 °F 75% 29.73 in 10.0 mi NW 16.1 mph - 0.01 in   Clear
11:15 AM 35.6 °F 27.1 °F 28.4 °F 75% 29.73 in 10.0 mi NW 12.7 mph - N/A   Clear
11:35 AM 37.4 °F 29.3 °F 30.2 °F 75% 29.73 in 10.0 mi NW 12.7 mph - N/A   Clear
11:55 AM 39.2 °F 31.6 °F 30.2 °F 70% 29.73 in 10.0 mi NW 12.7 mph 17.3 mph N/A   Clear
12:15 PM 41.0 °F 33.5 °F 32.0 °F 70% 29.72 in 10.0 mi WNW 13.8 mph - N/A   Clear
12:35 PM 42.8 °F 35.1 °F 32.0 °F 66% 29.72 in 10.0 mi NW 16.1 mph - N/A   Clear
12:55 PM 42.8 °F 36.6 °F 32.0 °F 66% 29.71 in 10.0 mi NW 11.5 mph - N/A   Clear
1:15 PM 44.6 °F 37.8 °F 32.0 °F 61% 29.70 in 10.0 mi NW 15.0 mph - N/A   Clear
1:35 PM 46.4 °F 39.8 °F 32.0 °F 57% 29.70 in 10.0 mi NNW 16.1 mph - N/A   Clear
1:55 PM 46.4 °F 39.8 °F 33.8 °F 62% 29.69 in 10.0 mi NW 16.1 mph - N/A   Clear
2:15 PM 48.2 °F - 33.8 °F 58% 29.69 in 10.0 mi NW 16.1 mph 20.7 mph N/A   Clear
2:35 PM 50.0 °F - 33.8 °F 54% 29.69 in 10.0 mi NW 16.1 mph 20.7 mph N/A   Clear
2:55 PM 51.8 °F - 33.8 °F 50% 29.69 in 10.0 mi NNW 15.0 mph 20.7 mph N/A   Clear
3:15 PM 51.8 °F - 33.8 °F 50% 29.69 in 10.0 mi NW 12.7 mph - N/A   Clear
3:35 PM 53.6 °F - 33.8 °F 47% 29.69 in 10.0 mi NW 13.8 mph - N/A   Clear
3:55 PM 53.6 °F - 33.8 °F 47% 29.69 in 10.0 mi NNW 15.0 mph - N/A   Clear
4:15 PM 53.6 °F - 33.8 °F 47% 29.69 in 10.0 mi NW 12.7 mph - N/A   Clear
4:35 PM 53.6 °F - 33.8 °F 47% 29.70 in 10.0 mi NW 11.5 mph - N/A   Clear
4:55 PM 51.8 °F - 35.6 °F 54% 29.71 in 10.0 mi NW 9.2 mph - N/A   Clear
5:15 PM 51.8 °F - 33.8 °F 50% 29.72 in 10.0 mi NNW 9.2 mph - N/A   Clear
5:35 PM 50.0 °F - 33.8 °F 54% 29.73 in 10.0 mi NNW 9.2 mph - N/A   Clear
5:55 PM 46.4 °F 43.5 °F 33.8 °F 62% 29.74 in 10.0 mi NNW 5.8 mph - N/A   Clear
6:15 PM 44.6 °F 41.4 °F 32.0 °F 61% 29.74 in 10.0 mi North 5.8 mph - N/A   Clear
6:35 PM 44.6 °F 41.4 °F 32.0 °F 61% 29.76 in 10.0 mi North 5.8 mph - N/A   Clear
6:55 PM 42.8 °F 39.3 °F 32.0 °F 66% 29.76 in 10.0 mi North 5.8 mph - N/A   Clear
7:15 PM 41.0 °F 38.0 °F 32.0 °F 70% 29.76 in 10.0 mi NNE 4.6 mph - N/A   Clear
7:35 PM 39.2 °F 35.9 °F 30.2 °F 70% 29.78 in 10.0 mi NE 4.6 mph - N/A   Clear
7:55 PM 39.2 °F 35.9 °F 30.2 °F 70% 29.78 in 10.0 mi ENE 4.6 mph - N/A   Clear
8:15 PM 39.2 °F 33.6 °F 30.2 °F 70% 29.78 in 10.0 mi NE 8.1 mph - N/A   Clear
8:35 PM 37.4 °F 32.8 °F 30.2 °F 75% 29.79 in 10.0 mi NE 5.8 mph - N/A   Clear
8:55 PM 37.4 °F 30.8 °F 28.4 °F 70% 29.79 in 10.0 mi NE 9.2 mph - N/A   Clear
9:15 PM 37.4 °F 32.1 °F 28.4 °F 70% 29.79 in 10.0 mi NE 6.9 mph - N/A   Clear
9:35 PM 37.4 °F 32.1 °F 28.4 °F 70% 29.79 in 10.0 mi ENE 6.9 mph - N/A   Clear
9:55 PM 39.2 °F 34.2 °F 28.4 °F 65% 29.80 in 10.0 mi ENE 6.9 mph - N/A   Clear
10:15 PM 35.6 °F 30.7 °F 28.4 °F 75% 29.81 in 10.0 mi East 5.8 mph - N/A   Clear
10:35 PM 32.0 °F 27.5 °F 28.4 °F 87% 29.82 in 10.0 mi SSE 4.6 mph - N/A   Clear
10:55 PM 32.0 °F 28.7 °F 30.2 °F 93% 29.82 in 10.0 mi SE 3.5 mph - N/A   Clear
11:15 PM 32.0 °F 27.5 °F 30.2 °F 93% 29.83 in 10.0 mi South 4.6 mph - N/A   Clear
11:35 PM 32.0 °F 24.8 °F 30.2 °F 93% 29.84 in 10.0 mi SW 8.1 mph - N/A   Clear
11:55 PM 32.0 °F 25.6 °F 30.2 °F 93% 29.84 in 10.0 mi SW 6.9 mph - N/A   Clear